Home > Weather > Kalamazoo > Past weeks

Flag for USA Past Weather in Kalamazoo, Michigan, USA — Yesterday and Last 2 Weeks

Now
75 °F

Clear.


Feels Like: 75 °F
Forecast: 63 / 85 °F
Wind: 3 mph from North

Location: Kalamazoo / Battle Creek International Airport

Current Time: Aug 28, 2016 at 10:18:23 PM

Latest Report: Aug 28, 2016 at 9:53 PM


Visibility: 10 mi

Pressure: 30.20 "Hg

Humidity: 82%

Dew Point: 69 °F

Location of KalamazooLocation

Past Weather in Kalamazoo — Graph

°F

Kalamazoo Temperature Yesterday

Maximum temperature yesterday: 80 °F (at 4:53 PM)
Minimum temperature yesterday: 67 °F (at 12:53 AM)
Average temperature yesterday: 72 °F

High & Low Weather Summary for the Past Weeks

 TemperatureHumidityPressure
High85 °F (Aug 28, 2:53 PM)93% (Aug 15, 8:53 PM)30.25 "Hg (Aug 15, 8:53 PM)
Low54 °F (Aug 22, 5:00 AM)42% (Aug 22, 2:53 PM)29.58 "Hg (Aug 20, 4:53 PM)
Average72 °F77%30.02 "Hg
* Reported Aug 13 8:53 PM — Aug 28 8:53 PM, Kalamazoo, Weather by CustomWeather, © 2016

Note: Actual official high and low records may vary slightly from our data, if they occured in-between our weather recording intervals... More about our weather records

Advertising

Kalamazoo Weather History for the Previous 24 Hours

Scroll right to see more
 ConditionsComfort  
Time TempWeatherWind HumidityBarometerVisibility
8:53 PM
Sun, Aug 28
78 °FSunny.5 mph74%30.16 "Hg10 mi
7:53 PM80 °FSunny.5 mph69%30.16 "Hg10 mi
6:53 PM84 °FPassing clouds.6 mph61%30.15 "Hg10 mi
5:53 PM84 °FSunny.6 mph59%30.16 "Hg10 mi
4:53 PM85 °FScattered clouds.7 mph53%30.18 "Hg10 mi
3:53 PM84 °FPassing clouds.No wind57%30.18 "Hg10 mi
2:53 PM85 °FScattered clouds.6 mph57%30.18 "Hg10 mi
1:53 PM84 °FScattered clouds.7 mph61%30.18 "Hg10 mi
12:53 PM83 °FPassing clouds.7 mph63%30.21 "Hg10 mi
11:53 AM82 °FScattered clouds.No wind65%30.20 "Hg10 mi
10:53 AM79 °FPassing clouds.3 mph74%30.19 "Hg10 mi
9:53 AM75 °FScattered clouds.No wind82%30.19 "Hg10 mi
8:53 AM73 °FFog.No wind90%30.19 "Hg3 mi
7:53 AM71 °FFog.No wind93%30.16 "Hg2 mi
6:56 AM71 °FFog.No wind93%30.17 "Hg3 mi
5:53 AM71 °FFog.3 mph93%30.14 "Hg4 mi
4:53 AM72 °FFog.5 mph91%30.13 "Hg6 mi
3:53 AM73 °FClear.6 mph88%30.11 "Hg8 mi
2:53 AM73 °FPassing clouds.5 mph90%30.11 "Hg9 mi
1:53 AM73 °FPassing clouds.6 mph90%30.11 "Hg10 mi
12:53 AM74 °FClear.3 mph88%30.10 "Hg10 mi
11:53 PM
Sat, Aug 27
75 °FClear.6 mph85%30.10 "Hg10 mi
10:53 PM75 °FClear.7 mph85%30.09 "Hg10 mi
Weather by CustomWeather, © 2016

See weather overviewHow to use our weather pages